Vorticity
30 21 18 14 18 22 13 5 7 7 8 10 5 -0 3 7 8 10 12 14 7 4 12 15 12 10 8 8 9 8 8 8 8 10 10 7 3 3 7 8 8 9 10 9 8 8 9 9 9 8 6 6 5 5 5 5 5 6 6 7 8 8 9 11 12 12 12 11 11 11 11 11 10 10 9 9 8 7 6 5 6 6 6 6 6
21 16 17 16 19 25 17 5 6 13 13 6 -1 2 10 10 6 6 9 13 7 4 10 12 10 11 10 9 10 9 10 9 9 11 11 7 4 6 7 7 9 10 9 8 7 7 8 7 6 5 4 4 5 6 7 8 8 9 9 10 11 11 11 11 11 10 10 10 10 10 10 10 9 8 8 7 6 6 6 5 6 6 7 7 7
21 18 18 17 20 23 15 5 10 19 13 -1 -3 5 10 9 7 5 6 9 8 11 14 11 9 10 11 11 10 10 10 10 10 11 10 7 7 8 7 6 8 8 7 7 7 6 6 4 4 4 4 5 6 7 9 9 10 10 10 10 10 10 10 9 9 9 9 8 8 8 7 7 8 8 7 7 7 7 7 6 7 7 8 9 9
29 20 14 18 20 17 14 13 15 18 10 -2 -0 8 11 10 7 6 9 14 16 17 15 10 7 7 10 13 12 12 11 10 11 11 9 8 8 8 6 5 7 7 7 7 6 5 4 4 5 5 5 6 7 9 10 10 10 9 8 9 9 10 9 8 8 8 8 7 7 7 6 6 7 7 7 7 7 8 8 8 9 9 10 9 9
29 26 21 21 20 17 20 20 14 10 4 -1 0 4 6 10 11 11 14 16 16 16 14 12 11 12 14 11 8 11 12 10 11 10 8 9 10 8 5 5 6 7 7 7 5 5 4 4 4 4 5 6 6 8 8 9 9 7 7 10 11 10 9 9 10 10 9 9 9 9 8 7 7 7 7 7 7 7 7 8 8 8 8 7 7
17 20 21 20 19 18 18 15 10 7 5 6 6 4 3 8 14 15 14 12 12 13 13 13 14 15 14 10 11 15 16 13 12 9 8 9 9 7 4 5 8 9 8 7 5 5 5 4 4 4 4 5 6 8 9 9 9 8 8 7 5 4 6 8 8 9 9 9 9 10 10 9 9 8 8 8 8 8 8 8 7 6 6 7 7
7 9 11 12 15 16 14 13 16 17 17 13 7 3 5 8 13 15 14 12 11 9 11 15 14 12 13 16 16 12 8 9 10 8 9 9 7 5 4 6 10 11 10 9 7 6 5 4 5 4 5 7 9 9 9 11 12 11 9 6 3 3 6 7 6 6 6 7 7 8 8 9 10 10 10 10 10 11 11 10 10 9 9 8 9
9 7 6 7 9 13 13 13 16 20 23 21 13 8 7 9 16 18 13 9 9 8 9 11 11 12 15 16 13 7 5 8 7 7 10 11 9 7 5 6 8 8 8 9 9 8 7 6 7 8 8 9 9 9 9 11 11 10 8 6 7 8 7 7 7 7 7 7 7 8 8 9 10 10 10 11 11 12 13 13 13 13 13 13 12
9 9 9 8 8 10 13 15 16 17 18 20 19 14 10 14 23 19 10 10 12 10 7 6 12 17 13 7 8 10 11 11 8 6 8 9 9 8 7 7 6 6 7 8 10 12 12 11 10 10 10 9 8 8 8 9 9 8 8 8 7 6 6 6 6 7 8 8 8 9 10 11 11 12 12 11 11 11 12 12 12 12 12 13 13
9 10 11 11 11 11 12 16 21 20 17 18 19 15 14 20 24 16 11 12 9 8 10 11 16 16 5 -0 7 11 10 10 7 5 4 4 5 4 5 6 7 9 12 13 14 15 14 13 12 11 10 8 8 8 8 9 10 9 9 7 6 6 7 7 8 8 9 10 11 12 13 14 14 14 13 13 13 13 13 12 11 10 11 12 12
9 9 11 13 13 13 13 15 18 18 17 18 21 20 16 17 16 11 11 9 7 15 21 12 9 8 2 2 9 11 11 10 6 5 5 4 5 8 13 16 17 17 17 14 12 11 11 11 10 9 8 8 8 9 9 8 8 7 7 7 7 8 8 9 9 10 11 13 14 14 13 12 13 12 12 11 10 10 9 9 9 10 10 11 11
10 10 10 9 9 12 14 17 18 15 13 18 26 27 17 9 9 10 12 11 12 16 12 -1 -2 4 6 7 10 11 12 10 7 7 8 7 9 13 15 15 13 12 10 7 7 8 7 7 6 7 8 9 9 9 8 7 7 7 8 9 9 9 9 9 9 10 10 10 10 10 9 9 8 7 7 6 6 7 7 8 8 8 8 8 8
9 11 10 7 7 9 12 15 17 14 12 16 23 25 14 6 11 14 9 9 12 8 1 -1 2 5 7 8 11 11 11 10 10 10 8 8 10 9 7 7 8 7 6 6 6 5 5 5 7 9 9 9 9 8 8 9 9 10 10 9 9 9 9 9 10 11 11 10 10 10 10 10 9 8 8 8 9 9 9 8 7 7 7 6 6
6 8 10 8 7 8 10 13 16 18 20 18 17 19 11 4 11 15 9 9 11 6 4 7 7 6 9 12 14 13 10 10 13 10 6 7 6 4 5 9 9 6 4 6 7 8 9 8 9 10 10 9 8 7 6 7 7 9 8 7 6 6 8 10 12 12 11 11 12 12 11 10 9 8 7 8 8 7 6 6 6 5 5 4 5
6 6 8 9 9 10 10 10 13 21 25 18 11 11 11 9 10 12 13 16 12 6 9 13 10 9 12 12 12 11 8 9 11 9 7 7 4 3 6 9 8 6 6 9 10 10 10 11 10 10 9 8 7 7 8 6 5 6 7 7 8 7 7 9 10 11 11 10 11 10 9 8 7 5 5 5 5 4 4 4 5 5 5 5 5
8 6 6 8 8 9 10 10 11 14 15 17 14 7 8 16 19 20 22 16 4 2 8 10 8 8 9 9 11 12 10 9 10 11 10 8 5 4 7 11 10 5 3 7 12 14 13 12 13 13 12 10 9 10 10 8 8 10 9 8 6 4 7 10 11 11 11 10 10 8 5 3 2 1 2 2 2 3 4 5 5 5 5 4 3
8 7 6 7 7 7 9 10 13 11 10 22 31 19 9 14 19 25 28 12 -4 -0 3 2 6 9 8 9 12 13 14 12 10 11 10 7 5 5 8 11 9 3 3 8 10 9 8 8 8 11 12 11 9 7 5 5 7 8 6 4 2 2 5 9 9 8 8 9 11 10 7 5 2 1 1 2 5 7 7 7 6 4 2 2 2
5 5 6 7 7 7 8 7 10 10 9 17 25 22 19 17 9 11 15 4 -5 -1 -1 -1 9 12 8 9 12 16 19 16 12 11 9 6 3 3 5 7 6 4 5 7 6 4 4 5 5 6 8 5 2 1 1 2 4 5 5 3 3 4 3 4 9 11 9 7 8 9 9 9 9 9 8 8 9 8 6 5 3 3 4 5 5
4 3 5 6 5 6 7 6 7 9 8 10 12 13 20 24 17 12 14 11 9 6 0 2 11 12 8 9 13 18 20 15 11 9 9 8 5 5 8 8 9 11 9 8 11 11 7 3 2 5 6 2 -2 -2 -2 0 4 5 4 3 5 7 6 9 14 12 6 8 11 10 9 9 9 11 10 8 7 4 2 2 4 5 6 6 5
5 4 5 6 5 6 7 6 6 7 7 9 10 7 8 18 25 24 17 10 4 -2 -4 2 10 12 10 8 7 13 18 19 15 11 13 14 10 10 14 12 11 16 17 16 18 16 10 8 6 6 6 3 0 -1 -1 2 4 3 1 2 5 8 8 9 8 2 1 10 14 9 7 8 9 9 6 3 2 0 1 4 6 7 6 5 6
5 6 6 7 7 7 7 7 7 7 7 7 9 8 4 8 16 20 17 11 6 6 9 10 7 5 3 1 1 4 8 14 15 14 17 18 10 7 11 10 5 3 1 4 8 4 0 2 2 3 7 7 5 4 5 9 11 9 6 2 -0 2 5 5 3 2 8 14 12 7 8 9 7 3 -1 -1 1 4 7 9 9 9 8 8 8
5 6 5 6 7 6 7 8 7 8 8 6 9 10 8 6 8 11 13 12 11 16 17 12 9 8 5 6 9 6 4 8 15 18 20 20 14 9 5 2 0 -3 -9 -8 -4 -4 -5 -1 3 6 9 9 9 11 12 14 14 14 14 12 9 9 9 7 7 10 14 13 8 6 6 3 0 -1 0 4 8 11 11 11 9 9 8 7 6
7 7 5 5 6 5 6 7 7 8 8 7 7 8 8 9 9 11 17 19 21 27 24 14 13 13 10 13 19 18 15 16 20 22 18 11 7 8 7 5 5 5 2 0 2 5 6 6 7 7 7 8 9 12 14 17 17 17 18 18 16 13 11 11 13 13 10 5 2 2 0 -1 1 5 9 12 12 11 10 8 7 6 5 5 4
6 6 6 5 5 6 7 7 6 7 9 10 11 9 8 9 6 6 14 21 25 31 31 27 23 13 6 13 18 15 12 11 9 12 13 7 2 4 11 14 11 8 8 6 5 7 9 9 10 10 9 9 10 12 16 18 17 15 13 12 11 11 11 11 8 4 1 -1 -1 0 1 4 8 11 12 11 9 7 6 5 4 4 4 4 4
6 5 5 6 5 4 6 8 7 8 8 10 12 11 9 11 9 4 -0 -3 -5 -3 3 14 18 10 4 7 7 4 4 4 3 7 14 18 18 15 14 14 10 6 2 -0 2 8 12 13 12 8 9 12 14 13 13 11 8 6 5 5 5 6 5 2 -1 -1 -0 1 2 5 7 11 12 12 10 8 6 5 5 5 5 5 4 4 4
9 7 6 7 7 6 7 7 6 6 6 8 12 14 12 10 10 9 6 4 6 7 8 11 12 9 8 9 8 7 6 3 1 3 5 8 12 13 13 13 10 5 1 1 7 12 13 11 7 5 10 15 12 6 4 4 4 4 2 0 0 0 1 2 3 4 5 6 9 11 12 12 10 8 7 6 5 5 5 5 5 4 4 5 5
11 11 11 10 11 12 11 10 8 7 6 6 10 14 14 12 10 10 10 11 14 15 15 16 14 9 5 5 4 4 2 1 3 6 5 4 4 4 3 0 -3 -3 -1 4 8 7 5 4 1 1 9 13 9 4 2 1 0 -0 -0 1 3 5 7 9 10 11 12 13 14 14 12 10 8 7 7 6 6 6 5 4 4 5 6 6 5
10 12 13 13 13 13 14 14 12 10 8 9 11 12 15 16 16 17 18 14 8 4 7 15 21 19 16 12 9 6 5 3 4 7 9 11 9 4 3 4 5 6 8 12 12 10 9 9 7 8 15 16 8 0 -3 -3 2 6 9 10 10 10 11 12 13 14 14 13 11 10 9 8 7 7 7 6 6 5 5 5 6 6 6 5 4
9 9 10 10 8 7 10 14 17 16 13 13 12 10 10 9 8 11 16 17 11 3 0 0 2 4 8 9 7 6 8 11 13 17 20 21 19 15 14 13 9 4 2 6 9 8 7 9 8 6 3 -3 -8 -8 -1 7 12 13 11 10 10 11 12 13 13 12 12 10 9 8 7 7 7 7 6 5 5 5 5 6 6 5 4 4 3
9 7 6 6 4 3 4 10 17 20 19 15 9 2 2 5 3 -1 -1 4 10 13 13 8 0 -6 -7 -7 -7 -7 -4 1 8 10 9 9 11 12 9 2 -5 -7 -1 8 13 11 7 4 3 0 -2 -2 1 6 11 12 10 7 7 10 12 13 13 12 11 10 9 8 7 7 7 7 7 6 6 6 6 5 4 4 3 4 4 4 4
10 9 7 6 6 5 5 9 14 16 15 17 15 7 -0 1 4 3 -2 -4 0 7 12 14 13 10 6 6 7 7 6 5 6 4 -0 -1 1 2 2 -0 -1 3 9 12 13 13 12 9 9 10 12 13 12 10 8 7 8 10 13 14 14 14 12 10 9 8 7 7 8 8 8 7 6 6 6 5 4 2 2 4 6 7 7 6 5
16 16 16 15 15 13 10 10 12 10 4 7 15 17 9 1 1 5 6 2 -1 -2 -2 -1 4 9 12 13 12 11 11 10 8 6 7 8 7 5 6 8 10 11 11 9 9 10 11 11 12 13 12 12 11 11 12 14 15 15 14 12 11 10 8 7 8 8 8 9 8 8 7 6 6 5 4 2 2 3 6 8 8 7 5 4 4
17 18 19 19 20 21 18 15 14 11 5 3 9 17 19 17 12 10 11 11 9 4 -0 -1 1 3 6 9 10 8 8 8 6 4 3 3 6 8 10 12 13 12 11 11 11 12 13 14 14 14 13 14 14 15 15 14 12 11 10 9 8 7 7 9 9 9 9 9 8 8 7 5 4 4 4 5 8 9 9 7 5 5 5 6 9
11 11 12 12 13 16 17 17 15 13 10 8 7 7 10 16 19 17 11 8 6 5 5 7 8 5 3 3 6 8 9 11 12 10 7 4 5 7 7 7 7 9 11 13 13 13 13 13 12 11 11 12 12 11 11 10 9 9 8 8 9 10 10 10 10 10 9 8 7 6 5 4 5 6 8 9 8 7 6 5 7 9 11 14 19
6 6 6 5 5 5 5 7 8 10 9 9 10 8 4 5 12 16 10 0 -4 -1 3 4 2 2 3 4 5 6 7 7 7 7 6 5 4 4 4 5 7 10 12 11 8 6 6 7 8 9 10 10 10 10 10 9 9 9 10 10 11 11 11 10 10 9 7 6 6 6 7 8 10 9 9 8 7 6 7 9 11 13 16 19 23
5 5 5 5 5 4 3 2 1 3 4 5 7 10 9 8 11 17 19 12 3 2 10 14 12 10 11 12 12 13 13 12 10 10 11 10 8 8 10 12 12 12 9 4 2 4 7 8 9 9 9 9 9 9 9 10 10 10 10 10 10 11 11 10 8 8 7 7 8 9 10 11 11 9 8 8 8 9 11 12 14 16 19 22 23
5 6 6 6 6 6 6 5 3 2 3 4 4 6 8 10 10 11 14 12 4 1 7 14 15 14 14 13 12 13 14 13 12 11 11 11 9 9 9 10 9 8 7 6 8 10 11 10 9 8 8 9 9 8 8 9 9 9 10 11 11 10 9 8 7 8 9 9 10 11 11 10 8 8 8 9 10 11 12 13 16 20 22 21 20
9 8 8 9 9 9 9 10 9 9 9 10 12 12 12 12 11 9 8 7 5 3 4 2 -3 -4 -2 -0 0 1 3 5 7 7 8 8 8 9 9 9 8 8 9 10 11 11 10 9 8 8 7 7 7 8 9 10 11 12 12 12 11 10 9 8 9 9 10 11 11 10 8 7 7 8 10 11 11 11 13 16 19 21 21 20 20
15 15 14 13 12 12 12 11 11 10 10 10 12 14 15 15 15 13 11 8 6 6 8 8 5 2 1 1 2 4 6 8 10 12 12 11 10 10 10 10 11 12 12 12 11 11 10 10 10 9 9 9 9 10 11 11 12 12 12 10 10 10 10 11 12 12 12 12 10 8 8 9 10 11 11 11 11 13 17 20 21 21 20 19 19
30 27 24 22 19 18 17 16 15 14 13 11 10 10 11 13 14 15 15 14 11 9 9 11 13 13 12 10 8 7 7 7 6 7 8 10 11 11 10 10 9 10 10 11 11 11 12 12 13 12 12 13 12 12 12 12 12 11 10 10 10 11 12 13 12 12 11 11 11 11 12 12 12 11 11 12 15 18 20 21 21 20 20 19 19
39 37 35 33 31 29 26 24 22 20 18 17 15 13 12 12 13 13 13 13 12 12 12 12 13 15 17 17 15 13 12 12 11 9 8 8 9 9 10 11 12 12 13 13 14 15 15 15 15 15 15 14 13 13 13 13 12 11 11 11 12 12 12 11 11 10 11 11 11 11 11 11 11 12 14 16 19 21 21 21 20 19 18 18 18
31 32 34 34 35 35 34 32 31 29 27 24 22 20 18 16 16 16 16 14 12 11 11 12 12 12 13 15 16 16 15 16 17 17 16 15 14 13 13 14 15 15 16 16 16 17 16 16 15 15 15 14 14 13 13 13 12 12 12 12 11 11 10 10 11 11 11 11 10 9 10 11 13 15 17 19 20 20 20 19 18 18 18 19 19
23 24 25 27 28 29 31 32 33 33 33 32 31 29 27 25 23 22 20 19 17 15 13 12 13 13 13 13 13 14 14 14 15 16 17 18 18 18 17 17 17 17 17 17 17 17 16 16 15 15 14 14 14 13 13 13 13 12 11 10 10 10 10 10 11 11 11 10 9 10 11 13 15 17 18 18 19 19 19 18 17 18 18 18 17
16 17 19 21 22 23 24 26 27 28 29 29 30 31 31 30 29 28 27 26 24 23 21 20 19 19 19 18 17 16 16 16 16 16 16 17 18 19 19 19 19 18 18 17 17 17 16 15 15 15 14 14 14 13 13 12 11 10 10 10 10 9 9 9 11 11 10 9 9 10 13 15 15 15 16 17 18 18 17 17 18 18 18 18 17
6 7 9 11 14 15 17 19 20 22 23 24 25 26 26 27 27 27 26 26 25 24 22 21 21 22 23 24 23 22 20 18 18 19 19 19 19 19 19 19 18 18 18 18 17 16 15 14 14 13 13 13 13 12 12 11 10 10 10 9 8 8 8 10 11 11 9 8 9 11 12 13 13 13 15 17 17 17 16 17 18 18 17 17 16
2 3 3 4 5 7 9 11 13 16 18 20 21 22 23 23 23 23 24 24 25 24 22 19 17 16 16 17 20 21 21 20 20 20 19 20 20 19 18 18 17 17 17 16 15 14 13 13 12 12 12 12 11 11 11 10 10 9 8 7 7 7 9 11 12 10 8 8 9 10 11 11 11 13 16 17 17 16 16 17 17 16 16 15 14
5 4 3 3 3 3 4 5 7 9 12 15 18 20 22 22 21 20 19 19 21 23 24 24 22 19 16 14 14 15 17 17 17 17 17 17 18 18 17 17 17 17 16 15 15 14 14 13 12 12 12 11 11 11 10 10 9 8 8 7 7 8 10 12 12 10 9 9 10 10 10 10 11 14 17 18 17 16 16 16 15 15 15 14 14
7 6 5 5 4 4 4 4 4 5 7 9 12 16 20 23 24 23 20 18 17 17 19 22 23 24 23 19 17 16 16 16 16 16 16 16 16 16 17 17 17 16 15 15 14 14 13 13 12 12 12 12 12 12 11 10 9 8 8 8 8 9 11 12 11 9 9 9 10 10 9 9 11 15 18 17 16 15 15 15 14 14 13 13 13
7 7 7 6 5 5 5 5 5 5 5 5 6 9 13 17 22 24 24 22 20 17 15 16 18 21 23 23 21 18 17 17 17 16 16 16 16 16 16 16 16 15 15 15 15 15 14 13 13 13 13 13 13 12 11 10 9 9 9 9 9 10 11 12 11 9 9 10 10 10 9 10 12 15 17 16 16 15 14 14 13 13 13 13 12
7 7 7 7 7 6 6 5 5 5 5 5 5 6 8 11 16 20 23 24 23 20 17 15 15 16 20 22 22 20 18 18 18 17 16 16 16 16 16 16 15 15 15 14 14 14 14 13 13 13 12 11 11 10 10 10 10 10 9 9 10 11 12 11 10 10 11 11 11 10 9 10 11 14 16 16 16 15 14 14 14 13 13 13 12
8 8 9 8 8 7 6 6 6 5 5 5 5 5 6 8 11 14 19 23 25 24 21 17 14 14 17 21 23 22 19 17 18 18 18 18 18 18 17 16 15 15 15 15 15 14 14 13 13 12 11 11 10 10 10 10 10 9 10 10 11 11 12 12 11 11 12 12 11 10 10 10 12 14 16 16 16 16 15 15 15 14 14 14 13
Height
5726 5726 5725 5726 5727 5729 5730 5732 5735 5738 5741 5743 5745 5746 5748 5749 5750 5751 5752 5753 5753 5755 5756 5758 5759 5760 5762 5763 5764 5766 5768 5770 5771 5772 5772 5773 5774 5774 5775 5776 5777 5778 5779 5780 5781 5782 5783 5784 5784 5785 5786 5786 5787 5787 5787 5787 5787 5786 5786 5786 5787 5788 5789 5789 5789 5789 5790 5790 5790 5790 5789 5789 5789 5789 5789 5789 5789 5789 5789 5790 5789 5789 5789 5789 5789
5723 5723 5723 5723 5725 5727 5729 5732 5736 5738 5738 5738 5741 5743 5745 5746 5747 5748 5750 5750 5751 5752 5754 5755 5757 5758 5759 5761 5762 5764 5766 5768 5769 5770 5770 5771 5771 5772 5773 5774 5775 5776 5777 5778 5779 5780 5781 5782 5782 5783 5784 5784 5784 5785 5785 5785 5785 5784 5784 5784 5785 5786 5786 5787 5787 5787 5787 5787 5787 5787 5787 5787 5787 5787 5787 5787 5787 5787 5787 5787 5787 5787 5787 5787 5787
5720 5720 5721 5723 5725 5727 5729 5732 5734 5734 5735 5736 5738 5741 5742 5742 5744 5746 5747 5748 5749 5750 5752 5753 5754 5755 5757 5758 5760 5762 5763 5765 5766 5767 5768 5768 5769 5770 5771 5772 5773 5774 5775 5776 5777 5778 5778 5779 5780 5781 5781 5782 5782 5782 5782 5782 5782 5782 5782 5782 5783 5784 5784 5785 5785 5785 5785 5785 5785 5785 5785 5785 5785 5785 5784 5784 5784 5785 5785 5785 5784 5784 5784 5784 5784
5719 5719 5720 5722 5724 5725 5727 5730 5731 5731 5734 5735 5737 5738 5738 5739 5742 5744 5745 5746 5747 5748 5749 5751 5752 5753 5755 5756 5758 5760 5761 5762 5763 5764 5765 5766 5767 5768 5769 5770 5771 5772 5773 5773 5774 5775 5776 5777 5777 5778 5779 5779 5779 5779 5780 5780 5780 5780 5780 5780 5781 5781 5782 5782 5782 5782 5782 5782 5782 5782 5782 5782 5782 5782 5782 5782 5782 5782 5782 5782 5782 5781 5781 5781 5781
5719 5719 5720 5720 5721 5723 5725 5727 5729 5730 5732 5733 5734 5736 5737 5738 5739 5740 5741 5742 5744 5745 5747 5748 5749 5751 5752 5754 5755 5757 5759 5760 5761 5762 5763 5764 5765 5766 5768 5768 5769 5770 5770 5771 5772 5773 5773 5774 5775 5776 5776 5777 5777 5777 5778 5778 5778 5778 5778 5778 5779 5780 5780 5780 5780 5780 5780 5779 5779 5779 5779 5779 5779 5779 5779 5778 5779 5779 5779 5779 5778 5778 5777 5777 5777
5719 5719 5720 5720 5721 5722 5724 5725 5727 5728 5730 5731 5732 5733 5735 5736 5736 5737 5738 5739 5741 5743 5745 5746 5747 5748 5750 5751 5753 5755 5757 5758 5758 5759 5761 5762 5763 5765 5765 5766 5767 5768 5768 5769 5769 5770 5771 5772 5772 5773 5774 5774 5775 5775 5776 5776 5777 5777 5777 5777 5777 5777 5777 5777 5777 5777 5777 5777 5776 5776 5776 5776 5776 5776 5775 5775 5775 5775 5776 5775 5774 5774 5774 5774 5774
5720 5720 5720 5720 5721 5722 5723 5724 5725 5726 5727 5728 5729 5730 5731 5733 5733 5734 5735 5737 5739 5740 5742 5744 5745 5746 5748 5749 5751 5753 5755 5756 5757 5758 5759 5760 5762 5763 5763 5763 5764 5765 5765 5766 5767 5768 5769 5769 5770 5771 5772 5772 5773 5773 5774 5774 5775 5775 5775 5774 5775 5775 5775 5774 5774 5774 5774 5773 5773 5773 5773 5773 5773 5772 5772 5772 5772 5772 5772 5772 5771 5771 5771 5771 5770
5721 5720 5720 5720 5720 5721 5721 5722 5722 5722 5723 5724 5726 5727 5728 5730 5730 5731 5733 5735 5736 5738 5740 5742 5743 5745 5746 5747 5749 5751 5752 5753 5754 5756 5757 5759 5759 5760 5760 5761 5761 5762 5763 5763 5764 5766 5766 5767 5768 5769 5769 5770 5770 5771 5771 5771 5772 5772 5772 5772 5772 5772 5771 5771 5771 5771 5770 5770 5770 5769 5769 5769 5769 5769 5768 5768 5768 5769 5769 5768 5768 5768 5768 5768 5767
5721 5720 5720 5719 5719 5719 5719 5719 5719 5719 5720 5721 5723 5724 5724 5726 5727 5728 5731 5733 5734 5736 5738 5740 5741 5742 5744 5745 5747 5749 5750 5751 5752 5753 5755 5756 5756 5756 5757 5757 5758 5759 5760 5761 5762 5763 5764 5765 5766 5766 5767 5767 5767 5768 5768 5768 5769 5769 5769 5769 5768 5768 5768 5768 5767 5767 5767 5766 5766 5766 5765 5765 5765 5765 5765 5765 5765 5765 5765 5765 5764 5764 5764 5764 5763
5720 5720 5719 5719 5719 5718 5718 5718 5717 5717 5718 5719 5720 5721 5721 5723 5725 5726 5728 5731 5733 5734 5736 5737 5739 5740 5742 5743 5745 5746 5746 5748 5749 5750 5751 5752 5753 5753 5754 5755 5755 5756 5757 5758 5759 5760 5761 5762 5763 5764 5764 5764 5765 5765 5765 5765 5766 5766 5766 5766 5765 5765 5764 5764 5764 5763 5763 5763 5762 5762 5762 5761 5762 5762 5762 5762 5762 5762 5762 5762 5761 5760 5760 5760 5759
5719 5719 5719 5719 5718 5717 5717 5716 5716 5716 5716 5716 5717 5718 5719 5721 5723 5724 5726 5729 5730 5732 5734 5735 5737 5739 5740 5741 5742 5743 5744 5744 5746 5747 5747 5748 5749 5751 5751 5752 5752 5753 5754 5755 5757 5758 5759 5760 5760 5761 5761 5761 5762 5762 5762 5762 5762 5763 5763 5763 5762 5762 5761 5761 5760 5760 5760 5759 5759 5759 5759 5758 5758 5758 5759 5758 5758 5758 5758 5758 5758 5757 5757 5757 5756
5718 5718 5718 5717 5717 5716 5716 5715 5714 5714 5714 5714 5715 5716 5718 5720 5721 5723 5725 5727 5728 5730 5731 5733 5735 5737 5738 5739 5740 5740 5741 5741 5742 5743 5744 5745 5746 5747 5748 5749 5750 5751 5752 5753 5754 5755 5756 5757 5757 5758 5758 5758 5759 5759 5759 5759 5759 5759 5759 5759 5759 5759 5758 5758 5757 5757 5757 5756 5756 5756 5756 5755 5755 5755 5755 5755 5755 5755 5754 5754 5754 5753 5753 5753 5753
5717 5717 5716 5716 5715 5715 5714 5713 5713 5713 5713 5713 5714 5715 5717 5718 5720 5722 5723 5724 5726 5727 5729 5731 5733 5734 5735 5736 5737 5738 5738 5739 5740 5740 5741 5742 5743 5744 5745 5747 5748 5749 5750 5751 5752 5752 5753 5753 5754 5754 5754 5755 5755 5756 5756 5756 5756 5756 5756 5756 5756 5755 5755 5755 5754 5754 5754 5754 5753 5753 5753 5752 5751 5751 5752 5752 5752 5751 5751 5750 5750 5749 5749 5749 5748
5716 5716 5715 5715 5715 5714 5713 5712 5712 5712 5712 5713 5713 5714 5716 5717 5718 5718 5720 5721 5723 5725 5727 5728 5730 5731 5732 5733 5734 5735 5735 5736 5737 5737 5738 5739 5741 5742 5743 5745 5746 5747 5748 5748 5749 5749 5749 5750 5750 5751 5751 5752 5752 5752 5753 5753 5753 5753 5753 5752 5752 5752 5752 5751 5751 5751 5750 5750 5750 5750 5749 5749 5748 5748 5748 5748 5748 5747 5747 5746 5746 5745 5745 5745 5744
5715 5715 5714 5714 5714 5713 5713 5712 5711 5711 5711 5712 5713 5714 5714 5715 5716 5716 5717 5719 5720 5722 5724 5725 5727 5728 5729 5730 5731 5732 5732 5733 5734 5735 5736 5737 5739 5740 5741 5742 5743 5744 5745 5745 5745 5746 5746 5746 5747 5747 5748 5749 5749 5749 5749 5749 5749 5749 5749 5749 5749 5749 5749 5749 5748 5748 5747 5747 5747 5747 5746 5746 5746 5745 5745 5744 5744 5743 5743 5742 5742 5741 5741 5740 5740
5713 5713 5713 5713 5713 5713 5712 5712 5711 5711 5711 5711 5712 5712 5713 5713 5713 5714 5715 5717 5717 5718 5720 5723 5724 5725 5726 5727 5728 5729 5729 5730 5731 5733 5734 5735 5737 5738 5738 5739 5740 5741 5741 5742 5742 5743 5743 5743 5743 5744 5744 5745 5745 5745 5745 5745 5745 5745 5745 5745 5745 5745 5745 5745 5745 5745 5745 5744 5744 5744 5744 5743 5743 5742 5742 5741 5740 5739 5739 5738 5737 5737 5736 5736 5735
5712 5712 5712 5712 5712 5712 5711 5711 5710 5710 5710 5710 5710 5710 5711 5711 5711 5712 5713 5714 5714 5715 5717 5719 5721 5722 5723 5724 5725 5726 5727 5728 5729 5730 5732 5733 5734 5734 5735 5736 5736 5737 5738 5738 5739 5739 5740 5740 5740 5740 5740 5740 5741 5741 5741 5741 5740 5740 5741 5741 5741 5741 5741 5741 5741 5741 5740 5740 5740 5740 5740 5739 5739 5739 5738 5738 5737 5736 5735 5734 5734 5733 5732 5732 5731
5711 5711 5710 5710 5710 5711 5710 5710 5710 5709 5709 5709 5709 5709 5710 5710 5709 5711 5712 5712 5712 5713 5714 5716 5718 5720 5721 5722 5723 5723 5724 5725 5726 5728 5729 5730 5730 5731 5732 5733 5733 5733 5734 5735 5735 5736 5736 5736 5736 5736 5736 5736 5736 5736 5735 5735 5736 5736 5736 5737 5737 5736 5736 5736 5736 5736 5735 5735 5735 5735 5734 5734 5734 5734 5733 5732 5732 5731 5730 5730 5729 5729 5728 5727 5726
5709 5709 5709 5709 5709 5709 5709 5709 5709 5709 5708 5708 5708 5708 5709 5708 5708 5709 5710 5710 5710 5711 5712 5713 5715 5717 5718 5719 5720 5721 5721 5722 5723 5724 5726 5727 5727 5728 5729 5730 5730 5730 5731 5732 5732 5732 5732 5732 5732 5731 5731 5731 5731 5731 5731 5732 5732 5732 5731 5731 5731 5731 5730 5730 5730 5730 5730 5730 5730 5729 5729 5729 5729 5728 5728 5727 5726 5726 5725 5724 5724 5723 5722 5721 5720
5707 5707 5707 5707 5707 5707 5707 5707 5707 5707 5707 5707 5707 5707 5707 5707 5707 5707 5708 5708 5709 5709 5710 5711 5713 5714 5715 5716 5717 5718 5718 5719 5720 5721 5722 5723 5724 5725 5727 5727 5727 5727 5728 5729 5730 5728 5727 5727 5727 5727 5727 5727 5727 5728 5728 5728 5728 5727 5727 5726 5725 5725 5724 5724 5725 5725 5725 5725 5724 5724 5724 5723 5723 5723 5722 5721 5720 5720 5719 5718 5717 5716 5714 5713 5712
5705 5705 5705 5705 5705 5705 5705 5706 5706 5706 5706 5706 5706 5706 5706 5706 5706 5706 5707 5707 5706 5705 5706 5708 5709 5711 5712 5713 5714 5714 5715 5716 5717 5718 5719 5720 5721 5722 5723 5724 5723 5723 5724 5725 5725 5724 5723 5723 5724 5724 5724 5724 5724 5723 5723 5723 5723 5723 5722 5721 5720 5720 5720 5720 5720 5720 5720 5720 5720 5719 5718 5718 5717 5717 5716 5715 5714 5713 5712 5711 5709 5708 5707 5706 5705
5702 5702 5702 5702 5702 5703 5703 5703 5703 5704 5704 5704 5705 5704 5704 5704 5704 5705 5705 5705 5705 5703 5703 5704 5706 5707 5709 5709 5710 5711 5712 5713 5714 5714 5716 5717 5718 5718 5719 5719 5719 5720 5721 5721 5721 5720 5720 5719 5720 5720 5720 5719 5719 5719 5718 5718 5718 5717 5717 5716 5715 5715 5716 5716 5716 5716 5716 5715 5715 5714 5713 5712 5712 5711 5710 5709 5708 5707 5705 5704 5703 5702 5701 5699 5698
5698 5699 5699 5700 5700 5700 5700 5700 5700 5701 5701 5702 5703 5703 5702 5702 5702 5703 5703 5703 5703 5702 5702 5702 5703 5704 5705 5706 5707 5708 5709 5710 5710 5711 5712 5713 5714 5715 5715 5715 5716 5716 5716 5716 5716 5716 5716 5716 5716 5715 5715 5714 5714 5714 5713 5713 5712 5712 5711 5711 5711 5712 5712 5712 5712 5711 5710 5710 5709 5708 5708 5706 5705 5705 5704 5703 5702 5701 5699 5698 5696 5695 5694 5692 5691
5695 5695 5696 5696 5697 5698 5698 5697 5698 5698 5698 5699 5699 5700 5700 5700 5700 5700 5700 5700 5700 5701 5701 5701 5701 5702 5703 5704 5705 5706 5707 5707 5708 5708 5709 5710 5711 5711 5711 5711 5711 5711 5711 5711 5711 5711 5711 5711 5711 5711 5710 5709 5709 5708 5708 5708 5708 5708 5708 5708 5708 5708 5708 5707 5706 5706 5705 5704 5703 5703 5702 5701 5700 5699 5698 5697 5696 5694 5693 5692 5690 5689 5687 5686 5684
5693 5693 5692 5692 5693 5694 5694 5694 5695 5695 5695 5695 5695 5696 5696 5697 5697 5697 5697 5698 5699 5699 5700 5701 5701 5701 5701 5702 5702 5702 5703 5704 5704 5705 5705 5706 5707 5707 5707 5707 5707 5706 5706 5706 5706 5706 5706 5706 5706 5706 5705 5705 5704 5704 5704 5704 5704 5704 5704 5704 5704 5703 5703 5702 5701 5700 5699 5699 5698 5697 5696 5695 5694 5693 5692 5691 5690 5689 5687 5685 5684 5683 5681 5679 5677
5689 5690 5689 5689 5689 5690 5691 5691 5691 5691 5691 5692 5692 5692 5693 5693 5693 5694 5694 5695 5696 5696 5697 5698 5698 5699 5699 5699 5698 5699 5699 5700 5701 5701 5701 5701 5702 5702 5702 5702 5702 5701 5701 5701 5702 5702 5701 5701 5702 5701 5701 5700 5700 5700 5700 5700 5700 5700 5700 5699 5699 5698 5697 5696 5696 5695 5694 5693 5692 5691 5690 5689 5688 5687 5686 5685 5684 5683 5681 5680 5678 5676 5674 5672 5670
5685 5686 5686 5685 5685 5686 5687 5687 5687 5688 5688 5688 5689 5690 5690 5690 5690 5690 5691 5691 5692 5693 5693 5694 5694 5695 5695 5695 5695 5695 5695 5696 5696 5697 5697 5697 5697 5697 5697 5696 5696 5696 5696 5696 5696 5697 5697 5697 5697 5696 5696 5696 5696 5696 5695 5695 5695 5695 5694 5694 5693 5693 5692 5691 5690 5689 5688 5688 5687 5686 5685 5684 5683 5682 5681 5679 5678 5677 5676 5674 5672 5669 5667 5665 5662
5682 5682 5682 5682 5682 5682 5683 5683 5684 5684 5684 5685 5686 5687 5687 5687 5687 5687 5687 5688 5689 5689 5690 5690 5690 5690 5690 5690 5690 5691 5691 5691 5692 5692 5692 5692 5692 5692 5692 5692 5692 5692 5692 5692 5692 5692 5692 5692 5692 5692 5691 5691 5691 5691 5690 5690 5690 5689 5689 5688 5688 5687 5686 5686 5685 5683 5683 5682 5681 5680 5679 5678 5677 5676 5675 5673 5672 5670 5669 5667 5664 5662 5659 5656 5653
5678 5678 5678 5679 5679 5679 5680 5680 5680 5680 5681 5681 5682 5683 5684 5684 5684 5684 5683 5683 5684 5685 5686 5686 5686 5686 5686 5686 5687 5687 5688 5687 5687 5688 5688 5688 5688 5688 5688 5688 5688 5688 5689 5689 5689 5688 5688 5688 5688 5687 5687 5686 5685 5685 5684 5684 5683 5683 5683 5682 5682 5681 5681 5680 5679 5678 5677 5676 5675 5674 5673 5672 5671 5670 5668 5667 5665 5663 5661 5659 5657 5654 5651 5648 5644
5673 5673 5674 5674 5675 5676 5676 5676 5676 5677 5677 5678 5678 5679 5679 5679 5680 5680 5680 5680 5680 5680 5681 5681 5682 5682 5682 5682 5682 5683 5683 5684 5684 5684 5684 5683 5683 5683 5683 5683 5684 5684 5684 5684 5684 5683 5683 5682 5682 5682 5681 5681 5680 5679 5678 5678 5678 5677 5677 5676 5676 5675 5674 5674 5673 5672 5671 5670 5669 5668 5667 5666 5664 5663 5661 5659 5658 5656 5654 5651 5649 5646 5643 5639 5636
5668 5668 5669 5669 5670 5671 5671 5671 5672 5673 5673 5674 5674 5674 5674 5674 5675 5676 5677 5676 5676 5676 5676 5676 5676 5677 5677 5677 5677 5677 5678 5678 5679 5678 5678 5678 5678 5678 5678 5678 5678 5678 5678 5678 5678 5677 5677 5676 5676 5676 5675 5675 5674 5673 5673 5672 5672 5671 5671 5670 5670 5669 5668 5667 5667 5666 5665 5664 5663 5662 5661 5659 5658 5656 5654 5652 5650 5648 5646 5643 5640 5638 5635 5632 5629
5663 5664 5664 5664 5665 5665 5666 5666 5667 5668 5669 5670 5670 5670 5670 5670 5671 5671 5672 5672 5671 5671 5670 5670 5671 5671 5672 5672 5672 5672 5672 5672 5672 5672 5672 5671 5671 5671 5671 5672 5672 5672 5672 5672 5671 5671 5671 5670 5670 5669 5669 5668 5668 5667 5667 5666 5666 5665 5665 5664 5664 5663 5662 5661 5661 5660 5659 5658 5657 5655 5654 5652 5651 5649 5647 5645 5643 5641 5638 5636 5633 5630 5627 5624 5621
5659 5659 5659 5659 5660 5660 5661 5661 5662 5663 5663 5664 5665 5666 5666 5666 5666 5667 5667 5667 5667 5666 5666 5666 5666 5666 5666 5667 5667 5667 5667 5667 5667 5666 5666 5665 5665 5665 5665 5665 5665 5665 5665 5665 5665 5665 5665 5664 5664 5663 5663 5662 5661 5661 5661 5661 5660 5660 5659 5659 5658 5657 5656 5655 5654 5653 5652 5651 5650 5649 5647 5646 5644 5642 5640 5638 5635 5633 5631 5628 5625 5622 5619 5616 5612
5654 5655 5655 5655 5655 5656 5656 5657 5657 5658 5658 5659 5659 5660 5660 5661 5661 5662 5662 5662 5661 5661 5660 5660 5660 5660 5660 5661 5661 5661 5662 5662 5661 5661 5661 5660 5660 5659 5659 5659 5659 5659 5659 5659 5659 5659 5659 5659 5658 5658 5657 5656 5655 5655 5655 5655 5654 5654 5653 5653 5652 5651 5650 5649 5648 5647 5646 5645 5644 5642 5640 5639 5637 5635 5633 5631 5629 5626 5623 5620 5617 5614 5611 5608 5605
5650 5651 5651 5651 5652 5652 5652 5652 5652 5652 5653 5653 5654 5654 5655 5655 5656 5656 5656 5656 5656 5655 5655 5655 5654 5654 5654 5654 5654 5655 5655 5655 5655 5655 5655 5654 5654 5654 5653 5653 5653 5653 5654 5654 5654 5653 5653 5653 5652 5652 5651 5650 5649 5649 5649 5649 5648 5648 5647 5647 5646 5645 5644 5643 5642 5641 5640 5639 5637 5635 5633 5631 5630 5628 5626 5624 5621 5618 5615 5613 5610 5607 5604 5601 5597
5645 5645 5646 5646 5646 5647 5647 5647 5647 5647 5647 5647 5648 5648 5649 5649 5650 5650 5651 5651 5650 5650 5649 5649 5649 5649 5648 5648 5648 5648 5648 5648 5648 5648 5648 5648 5648 5647 5647 5647 5647 5647 5647 5647 5647 5647 5647 5646 5646 5645 5645 5644 5643 5643 5643 5642 5642 5641 5641 5640 5640 5639 5638 5637 5636 5635 5634 5632 5630 5628 5626 5625 5623 5621 5619 5616 5614 5611 5609 5606 5604 5601 5598 5594 5590
5640 5640 5640 5640 5640 5640 5641 5641 5641 5641 5641 5642 5642 5642 5643 5643 5643 5644 5644 5644 5643 5643 5643 5643 5643 5642 5642 5642 5642 5642 5642 5642 5642 5642 5642 5641 5641 5641 5641 5641 5640 5640 5640 5640 5640 5640 5640 5639 5639 5639 5638 5638 5637 5637 5636 5636 5635 5635 5634 5634 5633 5633 5632 5631 5629 5628 5627 5626 5624 5622 5620 5618 5616 5614 5612 5609 5607 5605 5603 5600 5597 5594 5591 5588 5584
5635 5635 5634 5634 5634 5634 5634 5634 5634 5634 5635 5635 5636 5636 5636 5636 5636 5637 5637 5637 5636 5636 5636 5635 5635 5635 5634 5634 5635 5635 5635 5635 5635 5635 5635 5635 5634 5634 5634 5634 5633 5633 5633 5633 5633 5633 5633 5633 5633 5633 5632 5632 5632 5631 5630 5630 5629 5629 5628 5628 5627 5627 5626 5625 5623 5622 5621 5620 5618 5616 5614 5612 5610 5607 5605 5603 5601 5599 5596 5593 5590 5587 5584 5581 5578
5629 5629 5629 5629 5628 5628 5629 5629 5629 5628 5628 5628 5628 5628 5628 5628 5629 5629 5630 5630 5629 5629 5628 5628 5627 5627 5627 5627 5627 5627 5627 5627 5627 5627 5627 5627 5627 5627 5627 5627 5626 5626 5626 5626 5626 5626 5626 5626 5626 5626 5626 5626 5625 5625 5624 5624 5624 5623 5623 5622 5621 5621 5620 5619 5617 5616 5615 5613 5612 5610 5608 5606 5604 5601 5599 5597 5595 5593 5590 5587 5584 5582 5579 5576 5573
5624 5624 5623 5623 5623 5623 5623 5623 5622 5622 5622 5622 5622 5621 5621 5621 5621 5622 5623 5623 5622 5621 5620 5619 5619 5619 5619 5619 5619 5619 5619 5619 5620 5620 5620 5620 5620 5620 5620 5620 5619 5619 5619 5619 5619 5619 5619 5619 5619 5619 5619 5619 5619 5619 5618 5618 5618 5617 5616 5616 5615 5615 5614 5613 5611 5610 5609 5607 5605 5603 5602 5600 5598 5596 5594 5592 5589 5587 5584 5581 5579 5576 5574 5571 5569
5620 5619 5618 5618 5618 5618 5617 5617 5616 5616 5616 5616 5615 5614 5614 5614 5614 5615 5615 5615 5614 5613 5612 5612 5612 5611 5611 5612 5612 5612 5612 5611 5612 5612 5612 5612 5613 5613 5613 5612 5612 5612 5612 5612 5612 5612 5612 5612 5612 5612 5612 5612 5612 5612 5612 5612 5612 5611 5610 5610 5609 5609 5608 5607 5606 5604 5603 5601 5600 5598 5597 5595 5593 5591 5588 5586 5584 5581 5579 5576 5574 5572 5569 5567 5564
5617 5616 5616 5615 5614 5614 5613 5612 5611 5611 5610 5609 5609 5608 5607 5607 5607 5607 5607 5607 5607 5606 5605 5605 5604 5604 5604 5604 5605 5605 5604 5604 5604 5604 5604 5604 5605 5605 5605 5605 5605 5605 5605 5605 5605 5605 5605 5605 5606 5606 5606 5606 5606 5606 5606 5606 5605 5605 5605 5604 5604 5603 5602 5601 5600 5599 5598 5596 5595 5593 5592 5590 5588 5585 5583 5581 5579 5577 5574 5572 5570 5567 5565 5562 5560
5616 5615 5614 5613 5612 5611 5610 5609 5608 5607 5606 5604 5603 5602 5602 5602 5601 5601 5600 5600 5600 5599 5598 5598 5597 5597 5597 5597 5597 5597 5597 5597 5597 5597 5597 5597 5598 5598 5598 5598 5598 5598 5599 5599 5599 5599 5599 5599 5600 5600 5600 5600 5600 5600 5600 5600 5600 5600 5599 5599 5599 5598 5597 5596 5595 5594 5593 5592 5591 5589 5587 5584 5582 5580 5578 5576 5574 5572 5570 5568 5565 5563 5561 5558 5556
5616 5615 5613 5612 5611 5609 5608 5607 5605 5604 5603 5601 5599 5598 5597 5596 5596 5595 5594 5594 5593 5593 5592 5592 5591 5590 5590 5590 5590 5590 5590 5590 5590 5590 5590 5590 5591 5591 5591 5591 5592 5592 5592 5593 5593 5593 5593 5594 5594 5594 5594 5595 5595 5595 5595 5595 5595 5595 5594 5594 5594 5593 5592 5592 5591 5590 5589 5588 5586 5584 5582 5580 5578 5576 5574 5572 5570 5568 5566 5564 5562 5559 5557 5554 5552
5616 5615 5613 5612 5610 5608 5607 5605 5604 5602 5600 5599 5597 5595 5593 5592 5591 5590 5589 5588 5588 5587 5586 5586 5585 5585 5584 5583 5583 5583 5583 5583 5583 5583 5584 5584 5584 5584 5585 5585 5585 5586 5586 5587 5587 5587 5588 5588 5588 5589 5589 5589 5589 5590 5590 5590 5590 5590 5589 5589 5589 5589 5588 5587 5587 5586 5585 5583 5581 5579 5577 5576 5574 5572 5570 5568 5566 5564 5562 5560 5557 5555 5553 5551 5549
5616 5615 5613 5611 5610 5608 5606 5604 5602 5600 5599 5597 5595 5593 5591 5589 5587 5586 5585 5583 5582 5582 5581 5580 5580 5579 5579 5578 5578 5577 5577 5577 5577 5577 5578 5578 5578 5578 5579 5579 5580 5580 5581 5581 5581 5582 5582 5583 5583 5583 5584 5584 5584 5585 5585 5585 5585 5585 5585 5585 5585 5584 5584 5583 5582 5581 5580 5578 5577 5575 5574 5572 5571 5569 5566 5564 5562 5560 5558 5556 5554 5552 5550 5548 5546
5616 5614 5613 5611 5609 5607 5605 5603 5601 5599 5597 5595 5593 5591 5589 5587 5585 5583 5581 5579 5578 5577 5576 5575 5575 5574 5574 5574 5573 5573 5572 5572 5572 5572 5572 5572 5572 5573 5573 5574 5574 5575 5575 5576 5576 5576 5577 5577 5578 5578 5579 5579 5580 5580 5580 5580 5580 5580 5580 5580 5580 5580 5579 5579 5578 5577 5575 5574 5573 5571 5570 5568 5566 5564 5562 5560 5558 5556 5554 5552 5551 5549 5547 5545 5543
5615 5613 5611 5610 5608 5606 5604 5602 5600 5598 5596 5594 5592 5590 5587 5585 5583 5580 5578 5576 5574 5573 5572 5571 5570 5570 5569 5569 5569 5568 5568 5567 5567 5567 5567 5567 5567 5567 5568 5568 5569 5569 5570 5570 5571 5571 5572 5572 5573 5573 5574 5574 5575 5575 5576 5576 5576 5576 5576 5576 5576 5576 5575 5574 5573 5572 5571 5570 5569 5568 5566 5564 5562 5560 5558 5557 5555 5553 5551 5549 5548 5546 5544 5542 5540
5613 5612 5610 5608 5607 5605 5603 5601 5599 5597 5595 5592 5590 5588 5586 5583 5581 5579 5576 5574 5572 5570 5568 5567 5566 5565 5565 5565 5564 5564 5563 5562 5562 5562 5562 5562 5562 5562 5563 5563 5563 5564 5564 5565 5566 5566 5567 5568 5568 5569 5569 5570 5570 5571 5571 5572 5572 5572 5572 5572 5571 5571 5570 5570 5569 5568 5567 5566 5565 5564 5562 5560 5559 5557 5555 5553 5552 5550 5548 5546 5545 5543 5541 5539 5537
5612 5610 5609 5607 5605 5603 5601 5599 5597 5595 5593 5591 5588 5586 5584 5581 5579 5576 5574 5572 5569 5567 5565 5564 5562 5561 5561 5560 5560 5559 5559 5558 5557 5557 5557 5557 5558 5558 5558 5558 5559 5559 5559 5560 5561 5562 5562 5563 5564 5564 5565 5565 5566 5567 5567 5567 5568 5568 5568 5567 5567 5567 5566 5566 5565 5564 5563 5562 5561 5560 5558 5557 5555 5553 5552 5550 5548 5547 5545 5543 5542 5540 5538 5537 5535
5610 5608 5607 5605 5603 5601 5599 5597 5595 5593 5591 5589 5586 5584 5581 5579 5577 5574 5571 5569 5567 5565 5563 5561 5559 5558 5557 5556 5556 5555 5554 5554 5553 5553 5553 5553 5553 5554 5554 5554 5554 5554 5555 5555 5556 5557 5558 5558 5559 5560 5561 5561 5562 5563 5563 5564 5564 5564 5564 5563 5563 5563 5562 5562 5561 5560 5559 5558 5557 5556 5555 5553 5552 5550 5548 5547 5545 5544 5542 5540 5539 5537 5536 5534 5532